Location: Hebron
(33.0265°N, 96.8636°W)
Time: 10:31:26
(UTC+00:00)

Okean 1 - Pass Details

Date: 08 July 2022
Orbit: 532 x 553 km, 82.5° (Epoch: 14 August)

Event Time Altitude Azimuth Distance (km) Brightness Sun altitude
Rises 10:01:50 0° 334° (NNW) 2,680 7.0 -15.4°
Reaches altitude 10° 10:04:29 10° 315° (NW) 1,784 5.9 -15.0°
Maximum altitude 10:07:12 18° 271° (W) 1,335 4.8 -14.5°
Enters shadow 10:07:14 18° 270° (W) 1,335 4.8 -14.5°
